星链-2224 (STARLINK-2224 )

导读 | 星芒AI

STARLINK-2224 是 SpaceX Starlink 项目中的一颗低轨通信卫星,属于该星座的第二批部署任务。它运行在约 550 公里的高度,旨在为全球用户提供高速互联网服务。该卫星采用先进的推进和通信技术,支持全球范围内的宽带连接,尤其服务于偏远地区。Starlink 卫星群由数千颗卫星组成,通过组网实现低延迟、高带宽的互联网覆盖,推动全球数字通信的发展。STARLINK-2224 的发射和运行是 SpaceX 构建全球卫星互联网基础设施的重要一环。

基本信息
目录编号:
48573
目录名称:
STARLINK-2224
国际标识:
2021-041W
轨道中心:
EARTH
卫星名称:
星链-2224
卫星全名:
星链-2224 (STARLINK-2224 )
卫星状态:
在轨 (已飞行1676 天)
发射日期:
2021-05-15 UTC
国别 :
美国 (US)
星等 :
--
轨道信息
数据来源 国际轨道数据
星历时间: 2025-12-16T11:17:07+0800
20小时前
查看轨道信息
半长轴: 6925.358km
偏心率: 0.0001352
轨道倾角: 53.055°
近地点辐角 79.416°
升交点赤经 146.701°
平近点角 280.698°
近地点: 546.286km
远地点: 548.16km
周期: 95.592分钟
每日圈数: 15.063971
详细信息
固有亮度:
5
最大亮度:
2.5
卫星平台:
Starlink V1.0
覆盖范围:
全球
运营商:
太空探索技术公司
运营商所在国:
美国
制造商(研发单位):
太空探索技术公司
制造商所在国:
美国
使用方式:
暂无
卫星简介
星链(Starlink)计划是由太空探索技术公司(SpaceX)提出的一个巨型低轨卫星互联网星座项目,计划在2019年至2024年间在太空搭建由约1.2万颗卫星组成的“星链”网络,其中1584颗将部署在地球上空550千米处的近地轨道,并从2020年开始工作。该卫星仍在工作。
2D轨道图
3D轨道图
轨道高度分析图
轨道倾角分析图
轨道综合分析图
查看轨道综合分析图